| time (UTC) | temp F | wind direction | speed knots | gust knots | rain 1hr in | rain 24hr in | rain mn in | humidity % | barometer mb |
| 20260507195724 | 81 | 306 | 0.0 | 7.8 | 0.00 | 0.00 | 0.00 | 38 | 1014.8 |
| 20260507195224 | 81 | 245 | 0.0 | 7.8 | 0.00 | 0.00 | 0.00 | 38 | 1014.9 |
| 20260507194724 | 80 | 306 | 0.0 | 7.8 | 0.00 | 0.00 | 0.00 | 38 | 1014.7 |
| 20260507194224 | 80 | 225 | 0.0 | 4.3 | 0.00 | 0.00 | 0.00 | 37 | 1014.8 |
| 20260507193724 | 80 | 307 | 2.6 | 5.2 | 0.00 | 0.00 | 0.00 | 37 | 1014.9 |
| 20260507193224 | 79 | 307 | 1.7 | 5.2 | 0.00 | 0.00 | 0.00 | 37 | 1014.9 |
| 20260507192724 | 78 | 310 | 1.7 | 7.8 | 0.00 | 0.00 | 0.00 | 37 | 1015.0 |
| 20260507192224 | 78 | 312 | 0.0 | 7.8 | 0.00 | 0.00 | 0.00 | 37 | 1015.0 |
| 20260507191724 | 77 | 247 | 0.9 | 4.3 | 0.00 | 0.00 | 0.00 | 37 | 1015.1 |
| 20260507191223 | 77 | 256 | 2.6 | 4.3 | 0.00 | 0.00 | 0.00 | 37 | 1015.2 |
| 20260507190724 | 77 | 187 | 0.0 | 3.5 | 0.00 | 0.00 | 0.00 | 37 | 1015.2 |
| 20260507190224 | 77 | 178 | 0.0 | 5.2 | 0.00 | 0.00 | 0.00 | 36 | 1015.2 |
| 20260507185723 | 76 | 171 | 1.7 | 5.2 | 0.00 | 0.00 | 0.00 | 36 | 1015.3 |
| 20260507185224 | 76 | 303 | 1.7 | 4.3 | 0.00 | 0.00 | 0.00 | 35 | 1015.3 |
| 20260507184723 | 76 | 307 | 1.7 | 3.5 | 0.00 | 0.00 | 0.00 | 34 | 1015.4 |
| 20260507184223 | 76 | 308 | 0.0 | 5.2 | 0.00 | 0.00 | 0.00 | 33 | 1015.4 |
| 20260507183223 | 74 | 308 | 4.3 | 6.1 | 0.00 | 0.00 | 0.00 | 31 | 1015.3 |
| 20260507182723 | 73 | 308 | 0.0 | 6.1 | 0.00 | 0.00 | 0.00 | 31 | 1015.4 |
| 20260507182223 | 72 | 309 | 4.3 | 4.3 | 0.00 | 0.00 | 0.00 | 31 | 1015.5 |
| 20260507181723 | 71 | 309 | 0.0 | 4.3 | 0.00 | 0.00 | 0.00 | 30 | 1015.4 |
| 20260507181223 | 71 | 311 | 1.7 | 3.5 | 0.00 | 0.00 | 0.00 | 30 | 1015.5 |
| 20260507180723 | 70 | 310 | 0.0 | 3.5 | 0.00 | 0.00 | 0.00 | 30 | 1015.6 |
| 20260507180223 | 69 | 310 | 2.6 | 3.5 | 0.00 | 0.00 | 0.00 | 29 | 1015.4 |
| 20260507175723 | 68 | 310 | 0.0 | 3.5 | 0.00 | 0.00 | 0.00 | 29 | 1015.5 |
| 20260507175223 | 68 | 311 | 3.5 | 3.5 | 0.00 | 0.00 | 0.00 | 28 | 1015.5 |
| 20260507174723 | 67 | 311 | 0.0 | 4.3 | 0.00 | 0.00 | 0.00 | 28 | 1015.6 |
| 20260507174222 | 66 | 312 | 1.7 | 4.3 | 0.00 | 0.00 | 0.00 | 27 | 1015.6 |
| 20260507173722 | 66 | 311 | 0.0 | 3.5 | 0.00 | 0.00 | 0.00 | 26 | 1015.7 |
| 20260507173222 | 65 | 313 | 0.0 | 4.3 | 0.00 | 0.00 | 0.00 | 25 | 1015.5 |
| 20260507172222 | 64 | 313 | 0.0 | 4.3 | 0.00 | 0.00 | 0.00 | 24 | 1015.7 |
| 20260507171722 | 63 | 314 | 0.9 | 4.3 | 0.00 | 0.00 | 0.00 | 23 | 1015.6 |
| 20260507171222 | 63 | 308 | 0.0 | 4.3 | 0.00 | 0.00 | 0.00 | 22 | 1015.7 |
| 20260507170722 | 63 | 308 | 0.0 | 5.2 | 0.00 | 0.00 | 0.00 | 21 | 1015.8 |
| 20260507170252 | 62 | 307 | 2.6 | 5.2 | 0.00 | 0.00 | 0.00 | 20 | 1015.8 |
| 20260507165751 | 62 | 164 | 0.0 | 5.2 | 0.00 | 0.00 | 0.00 | 18 | 1015.8 |
| 20260507165252 | 62 | 320 | 0.0 | 4.3 | 0.00 | 0.00 | 0.00 | 16 | 1015.8 |
| 20260507164751 | 62 | 320 | 0.0 | 4.3 | 0.00 | 0.00 | 0.00 | 14 | 1015.9 |
| 20260507164252 | 61 | 321 | 0.0 | 4.3 | 0.00 | 0.00 | 0.00 | 12 | 1015.9 |
| 20260507163751 | 60 | 321 | 1.7 | 2.6 | 0.00 | 0.00 | 0.00 | 12 | 1015.9 |
| 20260507162752 | 58 | 321 | 0.0 | 1.7 | 0.00 | 0.00 | 0.00 | 12 | 1016.0 |
| 20260507162251 | 58 | 325 | 0.0 | 0.0 | 0.00 | 0.00 | 0.00 | 13 | 1016.0 |
| 20260507161751 | 57 | 322 | 0.0 | 0.0 | 0.00 | 0.00 | 0.00 | 13 | 1015.9 |
| 20260507161252 | 57 | 322 | 0.0 | 0.0 | 0.00 | 0.00 | 0.00 | 13 | 1016.0 |
| 20260507160751 | 56 | 322 | 0.0 | 0.0 | 0.00 | 0.00 | 0.00 | 13 | 1016.0 |
| 20260507155751 | 56 | 322 | 0.0 | 0.0 | 0.00 | 0.00 | 0.00 | 13 | 1016.1 |
| 20260507155250 | 56 | 322 | 0.0 | 0.0 | 0.00 | 0.00 | 0.00 | 13 | 1016.1 |
| 20260507154750 | 56 | 322 | 0.0 | 0.0 | 0.00 | 0.00 | 0.00 | 13 | 1016.1 |
| 20260507154250 | 55 | 322 | 0.0 | 0.0 | 0.00 | 0.00 | 0.00 | 13 | 1016.1 |
| 20260507153251 | 55 | 322 | 0.0 | 0.0 | 0.00 | 0.00 | 0.00 | 13 | 1016.1 |
| 20260507152250 | 56 | 322 | 0.0 | 0.0 | 0.00 | 0.00 | 0.00 | 13 | 1016.1 |
| 20260507151750 | 55 | 322 | 0.0 | 0.0 | 0.00 | 0.00 | 0.00 | 13 | 1016.1 |
| 20260507151250 | 55 | 322 | 0.0 | 2.6 | 0.00 | 0.00 | 0.00 | 13 | 1016.1 |
| 20260507150250 | 55 | 322 | 0.0 | 0.0 | 0.00 | 0.00 | 0.00 | 13 | 1016.1 |
| 20260507145250 | 55 | 322 | 0.0 | 0.0 | 0.00 | 0.00 | 0.00 | 13 | 1016.0 |
| 20260507144749 | 55 | 322 | 0.0 | 0.0 | 0.00 | 0.00 | 0.00 | 13 | 1016.0 |
| 20260507144250 | 55 | 322 | 0.0 | 0.0 | 0.00 | 0.00 | 0.00 | 13 | 1016.0 |
| 20260507143749 | 55 | 322 | 0.0 | 0.0 | 0.00 | 0.00 | 0.00 | 13 | 1016.0 |
| 20260507143249 | 55 | 322 | 0.0 | 0.0 | 0.00 | 0.00 | 0.00 | 13 | 1016.0 |
| 20260507142750 | 55 | 322 | 0.0 | 0.0 | 0.00 | 0.00 | 0.00 | 13 | 1016.0 |
| 20260507141749 | 55 | 322 | 0.0 | 0.0 | 0.00 | 0.00 | 0.00 | 13 | 1015.9 |
| 20260507140749 | 55 | 322 | 0.0 | 0.0 | 0.00 | 0.00 | 0.00 | 13 | 1015.8 |
| 20260507140249 | 55 | 322 | 0.0 | 0.0 | 0.00 | 0.00 | 0.00 | 13 | 1015.9 |
| 20260507135249 | 55 | 307 | 0.0 | 0.0 | 0.00 | 0.00 | 0.00 | 13 | 1015.9 |
| 20260507134749 | 55 | 307 | 0.0 | 0.0 | 0.00 | 0.00 | 0.00 | 13 | 1015.9 |
| 20260507134248 | 55 | 307 | 0.0 | 3.5 | 0.00 | 0.00 | 0.00 | 13 | 1015.8 |
| 20260507133749 | 55 | 307 | 0.0 | 3.5 | 0.00 | 0.00 | 0.00 | 13 | 1015.8 |
| 20260507131748 | 55 | 307 | 0.0 | 0.0 | 0.00 | 0.00 | 0.00 | 13 | 1015.5 |
| 20260507131248 | 55 | 307 | 0.0 | 0.0 | 0.00 | 0.00 | 0.00 | 13 | 1015.4 |
| 20260507130748 | 54 | 307 | 0.0 | 0.0 | 0.00 | 0.00 | 0.00 | 13 | 1015.4 |
| 20260507125748 | 54 | 307 | 0.0 | 0.0 | 0.00 | 0.00 | 0.00 | 13 | 1015.5 |
| 20260507125248 | 54 | 307 | 0.0 | 0.0 | 0.00 | 0.00 | 0.00 | 13 | 1015.4 |
| 20260507124748 | 55 | 307 | 0.0 | 0.0 | 0.00 | 0.00 | 0.00 | 13 | 1015.4 |
| 20260507124247 | 55 | 307 | 0.0 | 0.0 | 0.00 | 0.00 | 0.00 | 13 | 1015.5 |
| 20260507123747 | 55 | 307 | 0.0 | 0.0 | 0.00 | 0.00 | 0.00 | 13 | 1015.4 |
| 20260507123248 | 55 | 307 | 0.0 | 0.0 | 0.00 | 0.00 | 0.00 | 13 | 1015.4 |
| 20260507122248 | 55 | 307 | 0.0 | 0.0 | 0.00 | 0.00 | 0.00 | 13 | 1015.5 |
| 20260507121748 | 55 | 307 | 0.0 | 0.0 | 0.00 | 0.00 | 0.00 | 13 | 1015.6 |
| 20260507121247 | 55 | 307 | 0.0 | 0.0 | 0.00 | 0.00 | 0.00 | 13 | 1015.6 |
| 20260507120748 | 55 | 307 | 0.0 | 0.0 | 0.00 | 0.00 | 0.00 | 13 | 1015.6 |
| 20260507120247 | 55 | 307 | 0.0 | 0.0 | 0.00 | 0.00 | 0.00 | 13 | 1015.7 |
| 20260507115747 | 55 | 307 | 0.0 | 0.0 | 0.00 | 0.00 | 0.00 | 13 | 1015.8 |
| 20260507114247 | 55 | 307 | 0.0 | 0.0 | 0.00 | 0.00 | 0.00 | 13 | 1015.7 |
| 20260507113747 | 55 | 307 | 0.0 | 0.0 | 0.00 | 0.00 | 0.00 | 13 | 1015.8 |
| 20260507113247 | 55 | 307 | 0.0 | 0.0 | 0.00 | 0.00 | 0.00 | 13 | 1015.7 |
| 20260507112747 | 55 | 307 | 0.0 | 0.0 | 0.00 | 0.00 | 0.00 | 13 | 1015.8 |
| 20260507111746 | 55 | 307 | 0.0 | 0.0 | 0.00 | 0.00 | 0.00 | 13 | 1015.8 |
| 20260507111247 | 55 | 307 | 0.0 | 0.0 | 0.00 | 0.00 | 0.00 | 14 | 1015.8 |
| 20260507110746 | 55 | 307 | 0.0 | 0.0 | 0.00 | 0.00 | 0.00 | 14 | 1015.8 |
| 20260507105746 | 56 | 307 | 0.0 | 0.0 | 0.00 | 0.00 | 0.00 | 14 | 1015.9 |
| 20260507105246 | 56 | 307 | 0.0 | 0.0 | 0.00 | 0.00 | 0.00 | 14 | 1015.9 |
| 20260507104746 | 56 | 307 | 0.0 | 0.0 | 0.00 | 0.00 | 0.00 | 14 | 1016.0 |
| 20260507103746 | 56 | 307 | 0.0 | 0.0 | 0.00 | 0.00 | 0.00 | 14 | 1016.1 |
| 20260507103246 | 56 | 307 | 0.0 | 0.0 | 0.00 | 0.00 | 0.00 | 14 | 1016.1 |
| 20260507102246 | 56 | 307 | 0.0 | 0.0 | 0.00 | 0.00 | 0.00 | 14 | 1016.2 |
| 20260507101746 | 56 | 307 | 0.0 | 0.0 | 0.00 | 0.00 | 0.00 | 14 | 1016.2 |
| 20260507100745 | 56 | 307 | 0.0 | 0.0 | 0.00 | 0.00 | 0.00 | 14 | 1016.2 |
| 20260507095746 | 57 | 307 | 0.0 | 0.0 | 0.00 | 0.00 | 0.00 | 14 | 1016.4 |
| 20260507095246 | 57 | 307 | 0.0 | 0.0 | 0.00 | 0.00 | 0.00 | 13 | 1016.4 |
| 20260507094746 | 57 | 307 | 0.0 | 0.0 | 0.00 | 0.00 | 0.00 | 13 | 1016.4 |
| 20260507094245 | 57 | 307 | 0.0 | 0.0 | 0.00 | 0.00 | 0.00 | 13 | 1016.5 |
| 20260507093745 | 57 | 307 | 0.0 | 0.0 | 0.00 | 0.00 | 0.00 | 13 | 1016.5 |
| 20260507093245 | 57 | 307 | 0.0 | 0.0 | 0.00 | 0.00 | 0.00 | 13 | 1016.6 |
| 20260507092745 | 57 | 307 | 0.0 | 0.0 | 0.00 | 0.00 | 0.00 | 13 | 1016.5 |
| 20260507092245 | 57 | 307 | 0.0 | 0.0 | 0.00 | 0.00 | 0.00 | 13 | 1016.6 |
| 20260507091245 | 57 | 307 | 0.0 | 0.0 | 0.00 | 0.00 | 0.00 | 13 | 1016.6 |
| 20260507090745 | 57 | 307 | 0.0 | 0.0 | 0.00 | 0.00 | 0.00 | 13 | 1016.6 |
| 20260507090245 | 57 | 307 | 0.0 | 0.0 | 0.00 | 0.00 | 0.00 | 13 | 1016.7 |
| 20260507085744 | 57 | 307 | 0.0 | 0.0 | 0.00 | 0.00 | 0.00 | 13 | 1016.6 |
| 20260507085244 | 57 | 307 | 0.0 | 0.0 | 0.00 | 0.00 | 0.00 | 13 | 1016.8 |
| 20260507084745 | 57 | 307 | 0.0 | 0.0 | 0.00 | 0.00 | 0.00 | 13 | 1016.8 |
| 20260507084244 | 57 | 307 | 0.0 | 0.0 | 0.00 | 0.00 | 0.00 | 13 | 1016.9 |
| 20260507083744 | 57 | 307 | 0.0 | 2.6 | 0.00 | 0.00 | 0.00 | 13 | 1017.0 |
| 20260507083244 | 57 | 307 | 0.0 | 2.6 | 0.00 | 0.00 | 0.00 | 13 | 1017.1 |
| 20260507082744 | 57 | 307 | 0.0 | 1.7 | 0.00 | 0.00 | 0.00 | 13 | 1017.1 |
| 20260507082244 | 57 | 307 | 0.0 | 1.7 | 0.00 | 0.00 | 0.00 | 13 | 1017.1 |
| 20260507081744 | 57 | 307 | 0.0 | 0.0 | 0.00 | 0.00 | 0.00 | 13 | 1017.1 |
| 20260507080745 | 57 | 307 | 0.0 | 0.0 | 0.00 | 0.00 | 0.00 | 13 | 1017.2 |
| 20260507080244 | 57 | 307 | 0.0 | 0.0 | 0.00 | 0.00 | 0.00 | 13 | 1017.2 |
| 20260507075744 | 57 | 307 | 0.0 | 0.0 | 0.00 | 0.00 | 0.00 | 13 | 1017.3 |
| 20260507075244 | 57 | 307 | 0.0 | 0.0 | 0.00 | 0.00 | 0.00 | 13 | 1017.4 |
| 20260507074243 | 56 | 307 | 0.0 | 0.0 | 0.00 | 0.00 | 0.00 | 13 | 1017.4 |
| 20260507073743 | 56 | 307 | 0.0 | 0.0 | 0.00 | 0.00 | 0.00 | 13 | 1017.4 |
| 20260507073244 | 56 | 307 | 0.0 | 0.0 | 0.00 | 0.00 | 0.00 | 13 | 1017.3 |
| 20260507072743 | 56 | 307 | 0.0 | 0.0 | 0.00 | 0.00 | 0.00 | 13 | 1017.3 |
| 20260507072243 | 56 | 307 | 0.0 | 0.0 | 0.00 | 0.00 | 0.00 | 13 | 1017.3 |
| 20260507071743 | 56 | 307 | 0.0 | 0.0 | 0.00 | 0.00 | 0.00 | 13 | 1017.4 |
| 20260507071243 | 55 | 307 | 0.0 | 0.0 | 0.00 | 0.00 | 0.00 | 14 | 1017.3 |
| 20260507070743 | 55 | 307 | 0.0 | 0.0 | 0.00 | 0.00 | 0.00 | 14 | 1017.4 |
| 20260507065742 | 54 | 307 | 0.0 | 0.0 | 0.00 | 0.00 | 0.00 | 15 | 1017.4 |
| 20260507065243 | 54 | 307 | 0.0 | 0.0 | 0.00 | 0.00 | 0.00 | 15 | 1017.5 |
| 20260507064743 | 54 | 307 | 0.0 | 0.0 | 0.00 | 0.00 | 0.00 | 16 | 1017.5 |
| 20260507064243 | 54 | 307 | 0.0 | 0.0 | 0.00 | 0.00 | 0.00 | 16 | 1017.5 |
| 20260507063743 | 54 | 307 | 0.0 | 0.0 | 0.00 | 0.00 | 0.00 | 16 | 1017.5 |
| 20260507063242 | 54 | 307 | 0.0 | 0.0 | 0.00 | 0.00 | 0.00 | 17 | 1017.5 |
| 20260507062742 | 54 | 307 | 0.0 | 0.0 | 0.00 | 0.00 | 0.00 | 18 | 1017.5 |
| 20260507062242 | 54 | 307 | 0.0 | 0.0 | 0.00 | 0.00 | 0.00 | 18 | 1017.5 |
| 20260507061742 | 54 | 307 | 0.0 | 0.0 | 0.00 | 0.00 | 0.00 | 19 | 1017.4 |
| 20260507061242 | 54 | 307 | 0.0 | 0.0 | 0.00 | 0.00 | 0.00 | 19 | 1017.5 |
| 20260507060742 | 54 | 307 | 0.0 | 0.0 | 0.00 | 0.00 | 0.00 | 19 | 1017.5 |
| 20260507060242 | 55 | 307 | 0.0 | 0.0 | 0.00 | 0.00 | 0.00 | 19 | 1017.5 |
| 20260507055742 | 55 | 307 | 0.0 | 0.0 | 0.00 | 0.00 | 0.00 | 19 | 1017.5 |
| 20260507055242 | 55 | 307 | 0.0 | 0.0 | 0.00 | 0.00 | 0.00 | 19 | 1017.4 |
| 20260507054742 | 55 | 307 | 0.0 | 0.0 | 0.00 | 0.00 | 0.00 | 19 | 1017.4 |
| 20260507054242 | 55 | 307 | 0.0 | 0.0 | 0.00 | 0.00 | 0.00 | 18 | 1017.4 |
| 20260507053242 | 56 | 307 | 0.0 | 0.0 | 0.00 | 0.00 | 0.00 | 18 | 1017.5 |
| 20260507052741 | 56 | 307 | 0.0 | 0.0 | 0.00 | 0.00 | 0.00 | 18 | 1017.4 |
| 20260507052242 | 56 | 307 | 0.0 | 0.0 | 0.00 | 0.00 | 0.00 | 19 | 1017.5 |
| 20260507051741 | 56 | 307 | 0.0 | 0.0 | 0.00 | 0.00 | 0.00 | 19 | 1017.6 |
| 20260507050741 | 56 | 307 | 0.0 | 0.0 | 0.00 | 0.00 | 0.00 | 19 | 1017.6 |
| 20260507045741 | 57 | 307 | 0.0 | 0.0 | 0.00 | 0.00 | 0.00 | 20 | 1017.6 |
| 20260507045241 | 57 | 307 | 0.0 | 0.0 | 0.00 | 0.00 | 0.00 | 20 | 1017.5 |
| 20260507044741 | 57 | 307 | 0.0 | 0.0 | 0.00 | 0.00 | 0.00 | 20 | 1017.5 |
| 20260507044241 | 57 | 307 | 0.0 | 0.0 | 0.00 | 0.00 | 0.00 | 21 | 1017.4 |
| 20260507043741 | 57 | 307 | 0.0 | 0.0 | 0.00 | 0.00 | 0.00 | 21 | 1017.4 |
| 20260507043240 | 57 | 307 | 0.0 | 0.0 | 0.00 | 0.00 | 0.00 | 22 | 1017.3 |
| 20260507042740 | 57 | 307 | 0.0 | 0.0 | 0.00 | 0.00 | 0.00 | 22 | 1017.3 |
| 20260507042241 | 57 | 307 | 0.0 | 0.0 | 0.00 | 0.00 | 0.00 | 23 | 1017.2 |
| 20260507041241 | 58 | 307 | 0.0 | 0.0 | 0.00 | 0.00 | 0.00 | 25 | 1017.2 |
| 20260507040240 | 58 | 307 | 0.0 | 0.9 | 0.00 | 0.00 | 0.00 | 27 | 1017.1 |
| 20260507034740 | 59 | 227 | 0.0 | 0.0 | 0.00 | 0.00 | 0.00 | 29 | 1016.9 |
| 20260507033740 | 59 | 230 | 0.0 | 0.0 | 0.00 | 0.00 | 0.00 | 31 | 1016.7 |
| 20260507033240 | 59 | 230 | 0.0 | 3.5 | 0.00 | 0.00 | 0.00 | 32 | 1016.7 |
| 20260507032240 | 60 | 230 | 0.0 | 2.6 | 0.00 | 0.00 | 0.00 | 34 | 1016.6 |
| 20260507031739 | 60 | 229 | 0.0 | 0.0 | 0.00 | 0.00 | 0.00 | 35 | 1016.6 |
| 20260507031239 | 60 | 229 | 0.0 | 0.9 | 0.00 | 0.00 | 0.00 | 36 | 1016.6 |
| 20260507030740 | 61 | 229 | 0.0 | 3.5 | 0.00 | 0.00 | 0.00 | 37 | 1016.4 |
| 20260507030241 | 61 | 229 | 0.0 | 3.5 | 0.00 | 0.00 | 0.00 | 38 | 1016.5 |
| 20260507025739 | 61 | 227 | 0.0 | 3.5 | 0.00 | 0.00 | 0.00 | 38 | 1016.4 |
| 20260507025239 | 62 | 227 | 0.0 | 3.5 | 0.00 | 0.00 | 0.00 | 39 | 1016.3 |
| 20260507024739 | 62 | 226 | 0.0 | 2.6 | 0.00 | 0.00 | 0.00 | 40 | 1016.3 |
| 20260507024240 | 63 | 226 | 0.0 | 2.6 | 0.00 | 0.00 | 0.00 | 40 | 1016.4 |
| 20260507023739 | 63 | 227 | 0.0 | 0.0 | 0.00 | 0.00 | 0.00 | 41 | 1016.3 |
| 20260507023239 | 63 | 227 | 0.0 | 4.3 | 0.00 | 0.00 | 0.00 | 41 | 1016.3 |
| 20260507022739 | 63 | 226 | 0.0 | 4.3 | 0.00 | 0.00 | 0.00 | 42 | 1016.2 |
| 20260507022239 | 64 | 313 | 0.0 | 5.2 | 0.00 | 0.00 | 0.00 | 43 | 1016.1 |
| 20260507021738 | 64 | 313 | 0.0 | 5.2 | 0.00 | 0.00 | 0.00 | 44 | 1016.1 |
| 20260507021239 | 64 | 240 | 0.0 | 5.2 | 0.00 | 0.00 | 0.00 | 44 | 1016.1 |
| 20260507020739 | 65 | 241 | 0.0 | 6.1 | 0.00 | 0.00 | 0.00 | 45 | 1016.1 |
| 20260507015739 | 66 | 302 | 0.0 | 5.2 | 0.00 | 0.00 | 0.00 | 46 | 1016.0 |
| 20260507015239 | 66 | 309 | 2.6 | 5.2 | 0.00 | 0.00 | 0.00 | 46 | 1016.0 |
| 20260507014739 | 67 | 310 | 0.0 | 5.2 | 0.00 | 0.00 | 0.00 | 47 | 1015.8 |
| 20260507014238 | 67 | 313 | 0.0 | 7.8 | 0.00 | 0.00 | 0.00 | 47 | 1015.9 |
| 20260507013738 | 68 | 235 | 0.9 | 7.8 | 0.00 | 0.00 | 0.00 | 47 | 1015.7 |
| 20260507013238 | 68 | 200 | 3.5 | 6.1 | 0.00 | 0.00 | 0.00 | 47 | 1015.8 |
| 20260507011738 | 69 | 258 | 0.0 | 10.4 | 0.00 | 0.00 | 0.00 | 47 | 1015.7 |
| 20260507010738 | 70 | 213 | 4.3 | 8.7 | 0.00 | 0.00 | 0.00 | 47 | 1015.8 |
| 20260507010237 | 70 | 311 | 0.0 | 9.6 | 0.00 | 0.00 | 0.00 | 47 | 1015.8 |
| 20260507005737 | 70 | 246 | 2.6 | 9.6 | 0.00 | 0.00 | 0.00 | 46 | 1015.7 |
| 20260507005238 | 71 | 267 | 0.0 | 8.7 | 0.00 | 0.00 | 0.00 | 46 | 1015.7 |
| 20260507004737 | 71 | 228 | 3.5 | 8.7 | 0.00 | 0.00 | 0.00 | 46 | 1015.6 |
| 20260507004237 | 71 | 260 | 3.5 | 8.7 | 0.00 | 0.00 | 0.00 | 46 | 1015.7 |
| 20260507003739 | 72 | 269 | 2.6 | 6.1 | 0.00 | 0.00 | 0.00 | 46 | 1015.6 |
| 20260507003238 | 72 | 238 | 0.9 | 8.7 | 0.00 | 0.00 | 0.00 | 45 | 1015.6 |
| 20260507002738 | 72 | 246 | 0.9 | 8.7 | 0.00 | 0.00 | 0.00 | 45 | 1015.6 |
| 20260507002237 | 72 | 235 | 3.5 | 7.8 | 0.00 | 0.00 | 0.00 | 45 | 1015.5 |
| 20260507001737 | 72 | 123 | 1.7 | 8.7 | 0.00 | 0.00 | 0.00 | 45 | 1015.5 |
| 20260507001237 | 72 | 268 | 1.7 | 8.7 | 0.00 | 0.00 | 0.00 | 45 | 1015.5 |
| 20260507000237 | 73 | 255 | 0.0 | 11.3 | 0.00 | 0.00 | 0.00 | 45 | 1015.4 |
| 20260506235737 | 73 | 253 | 0.9 | 11.3 | 0.00 | 0.00 | 0.00 | 45 | 1015.4 |
| 20260506235237 | 73 | 178 | 0.0 | 7.8 | 0.00 | 0.00 | 0.00 | 45 | 1015.5 |
| 20260506234736 | 72 | 237 | 3.5 | 9.6 | 0.00 | 0.00 | 0.00 | 45 | 1015.5 |
| 20260506234236 | 73 | 194 | 2.6 | 9.6 | 0.00 | 0.00 | 0.00 | 45 | 1015.4 |
| 20260506233736 | 73 | 300 | 2.6 | 7.8 | 0.00 | 0.00 | 0.00 | 45 | 1015.4 |
| 20260506233236 | 73 | 157 | 0.0 | 8.7 | 0.00 | 0.00 | 0.00 | 45 | 1015.5 |
| 20260506232736 | 73 | 200 | 0.0 | 10.4 | 0.00 | 0.00 | 0.00 | 45 | 1015.4 |
| 20260506232236 | 73 | 223 | 0.0 | 10.4 | 0.00 | 0.00 | 0.00 | 45 | 1015.4 |
| 20260506231737 | 73 | 234 | 0.0 | 8.7 | 0.00 | 0.00 | 0.00 | 45 | 1015.4 |
| 20260506231236 | 73 | 315 | 2.6 | 8.7 | 0.00 | 0.00 | 0.00 | 45 | 1015.5 |
| 20260506230236 | 74 | 209 | 1.7 | 10.4 | 0.00 | 0.00 | 0.00 | 44 | 1015.6 |
| 20260506225736 | 75 | 232 | 0.0 | 10.4 | 0.00 | 0.00 | 0.00 | 43 | 1015.5 |
| 20260506225235 | 75 | 273 | 0.9 | 7.8 | 0.00 | 0.00 | 0.00 | 43 | 1015.6 |
| 20260506224735 | 75 | 243 | 0.0 | 8.7 | 0.00 | 0.00 | 0.00 | 43 | 1015.7 |
| 20260506223735 | 75 | 304 | 0.9 | 9.6 | 0.00 | 0.00 | 0.00 | 43 | 1015.7 |
| 20260506223235 | 75 | 238 | 1.7 | 10.4 | 0.00 | 0.00 | 0.00 | 43 | 1015.8 |
| 20260506222736 | 76 | 269 | 0.0 | 10.4 | 0.00 | 0.00 | 0.00 | 43 | 1015.9 |
| 20260506221735 | 75 | 326 | 1.7 | 11.3 | 0.00 | 0.00 | 0.00 | 43 | 1015.8 |
| 20260506221235 | 75 | 312 | 3.5 | 13.0 | 0.00 | 0.00 | 0.00 | 43 | 1016.0 |
| 20260506220735 | 75 | 286 | 0.0 | 13.0 | 0.00 | 0.00 | 0.00 | 43 | 1016.1 |
| 20260506220235 | 75 | 264 | 0.0 | 8.7 | 0.00 | 0.00 | 0.00 | 43 | 1016.1 |
| 20260506215735 | 75 | 238 | 1.7 | 8.7 | 0.00 | 0.00 | 0.00 | 43 | 1016.2 |
| 20260506215235 | 75 | 320 | 1.7 | 10.4 | 0.00 | 0.00 | 0.00 | 43 | 1016.1 |
| 20260506214735 | 75 | 229 | 0.9 | 12.2 | 0.00 | 0.00 | 0.00 | 43 | 1016.2 |
| 20260506214234 | 75 | 283 | 0.0 | 12.2 | 0.00 | 0.00 | 0.00 | 43 | 1016.2 |
| 20260506213734 | 75 | 215 | 0.9 | 11.3 | 0.00 | 0.00 | 0.00 | 43 | 1016.2 |
| 20260506212734 | 75 | 203 | 2.6 | 12.2 | 0.00 | 0.00 | 0.00 | 43 | 1016.3 |
| 20260506212234 | 74 | 233 | 4.3 | 10.4 | 0.00 | 0.00 | 0.00 | 43 | 1016.2 |
| 20260506211734 | 74 | 186 | 1.7 | 10.4 | 0.00 | 0.00 | 0.00 | 43 | 1016.1 |
| 20260506211234 | 74 | 301 | 6.1 | 10.4 | 0.00 | 0.00 | 0.00 | 44 | 1016.3 |
| 20260506210734 | 74 | 325 | 5.2 | 10.4 | 0.00 | 0.00 | 0.00 | 44 | 1016.2 |
| 20260506205734 | 74 | 265 | 3.5 | 11.3 | 0.00 | 0.00 | 0.00 | 43 | 1016.3 |
| 20260506204734 | 74 | 221 | 2.6 | 13.0 | 0.00 | 0.00 | 0.00 | 43 | 1016.3 |
| 20260506204234 | 74 | 303 | 0.0 | 13.0 | 0.00 | 0.00 | 0.00 | 43 | 1016.2 |
| 20260506203734 | 75 | 214 | 2.6 | 10.4 | 0.00 | 0.00 | 0.00 | 42 | 1016.2 |
| 20260506203234 | 75 | 306 | 2.6 | 9.6 | 0.00 | 0.00 | 0.00 | 42 | 1016.2 |
| 20260506202733 | 75 | 17 | 0.9 | 9.6 | 0.00 | 0.00 | 0.00 | 42 | 1016.3 |
| 20260506202233 | 75 | 257 | 7.8 | 9.6 | 0.00 | 0.00 | 0.00 | 42 | 1016.2 |
| 20260506201733 | 76 | 320 | 1.7 | 11.3 | 0.00 | 0.00 | 0.00 | 42 | 1016.3 |
| 20260506201233 | 76 | 312 | 5.2 | 11.3 | 0.00 | 0.00 | 0.00 | 41 | 1016.4 |
| 20260506200733 | 76 | 261 | 3.5 | 9.6 | 0.00 | 0.00 | 0.00 | 41 | 1016.4 |
| 20260506200233 | 76 | 263 | 4.3 | 9.6 | 0.00 | 0.00 | 0.00 | 41 | 1016.4 |